International Skating Union - Official Site

Essent ISU World Cup Berlin
December 6-8, 2013

Draw | Lap Times | Index | World Cup

Referee: Jacques  DE KONING  (NED)
Starter: Jouko  VESTERLUND  (FIN)
StartTime: EndTime: Air Temp: Ice Temp: Humidity:
15:16 16:16 17.9℃ -4℃ 34.3
Result 5000m Men Division A
Rankings as of Dec 8 2013 5:18PM
Rank: No.: Name: Nation: Time: Behind: Points:
1 81 Jorrit  Bergsma NED NED 6:14.82200m - 19.46 - (19.4)
600m - 48.44 - (28.9)
1000m - 1:17.66 - (29.2)
1400m - 1:47.00 - (29.3)
1800m - 2:16.21 - (29.2)
2200m - 2:45.37 - (29.1)
2600m - 3:14.74 - (29.3)
3000m - 3:44.13 - (29.3)
3400m - 4:13.87 - (29.7)
3800m - 4:43.82 - (29.9)
4200m - 5:14.04 - (30.2)
4600m - 5:44.30 - (30.2)
5000m - 6:14.82 - (30.5)
100
2 82 Jan  Blokhuijsen NED NED 6:15.66200m - 18.46 - (18.4)
600m - 46.98 - (28.5)
1000m - 1:16.07 - (29.0)
1400m - 1:45.65 - (29.5)
1800m - 2:15.43 - (29.7)
2200m - 2:45.19 - (29.7)
2600m - 3:15.14 - (29.9)
3000m - 3:45.26 - (30.1)
3400m - 4:15.11 - (29.8)
3800m - 4:44.91 - (29.8)
4200m - 5:14.84 - (29.9)
4600m - 5:45.03 - (30.1)
5000m - 6:15.66 - (30.6)
0.84 80
3 78 Seung-Hoon  Lee KOR KOR 6:16.12200m - 19.48 - (19.4)
600m - 49.01 - (29.5)
1000m - 1:18.55 - (29.5)
1400m - 1:48.54 - (29.9)
1800m - 2:18.38 - (29.8)
2200m - 2:48.11 - (29.7)
2600m - 3:17.78 - (29.6)
3000m - 3:47.64 - (29.8)
3400m - 4:17.36 - (29.7)
3800m - 4:46.79 - (29.4)
4200m - 5:16.44 - (29.6)
4600m - 5:45.97 - (29.5)
5000m - 6:16.12 - (30.1)
1.30 70
4 6 Bart  Swings BEL BEL 6:18.62200m - 18.69 - (18.6)
600m - 48.35 - (29.6)
1000m - 1:18.22 - (29.8)
1400m - 1:47.93 - (29.7)
1800m - 2:17.97 - (30.0)
2200m - 2:47.99 - (30.0)
2600m - 3:18.06 - (30.0)
3000m - 3:48.17 - (30.1)
3400m - 4:18.27 - (30.1)
3800m - 4:48.21 - (29.9)
4200m - 5:17.98 - (29.7)
4600m - 5:48.13 - (30.1)
5000m - 6:18.62 - (30.4)
3.80 60
5 85 Douwe  de Vries NED NED 6:18.64200m - 18.96 - (18.9)
600m - 48.88 - (29.9)
1000m - 1:18.77 - (29.8)
1400m - 1:48.40 - (29.6)
1800m - 2:18.29 - (29.8)
2200m - 2:48.10 - (29.8)
2600m - 3:17.80 - (29.7)
3000m - 3:47.38 - (29.5)
3400m - 4:17.12 - (29.7)
3800m - 4:47.14 - (30.0)
4200m - 5:17.54 - (30.4)
4600m - 5:47.99 - (30.4)
5000m - 6:18.64 - (30.6)
3.82 50
6 126 Ivan  Skobrev RUS RUS 6:18.66200m - 19.28 - (19.2)
600m - 49.21 - (29.9)
1000m - 1:19.61 - (30.4)
1400m - 1:49.97 - (30.3)
1800m - 2:20.30 - (30.3)
2200m - 2:50.68 - (30.3)
2600m - 3:20.95 - (30.2)
3000m - 3:50.66 - (29.7)
3400m - 4:20.28 - (29.6)
3800m - 4:50.01 - (29.7)
4200m - 5:19.63 - (29.6)
4600m - 5:49.18 - (29.5)
5000m - 6:18.66 - (29.4)
3.84 45
7 100 Sverre  Lunde Pedersen NOR NOR 6:19.03200m - 18.98 - (18.9)
600m - 48.46 - (29.4)
1000m - 1:18.70 - (30.2)
1400m - 1:48.84 - (30.1)
1800m - 2:19.04 - (30.2)
2200m - 2:49.50 - (30.4)
2600m - 3:19.60 - (30.1)
3000m - 3:49.56 - (29.9)
3400m - 4:19.28 - (29.7)
3800m - 4:49.00 - (29.7)
4200m - 5:18.57 - (29.5)
4600m - 5:48.42 - (29.8)
5000m - 6:19.03 - (30.6)
4.21 40
8 136 Jonathan  Kuck USA USA 6:20.24200m - 19.10 - (19.1)
600m - 49.14 - (30.0)
1000m - 1:18.95 - (29.8)
1400m - 1:48.86 - (29.9)
1800m - 2:18.90 - (30.0)
2200m - 2:49.06 - (30.1)
2600m - 3:19.12 - (30.0)
3000m - 3:49.38 - (30.2)
3400m - 4:19.64 - (30.2)
3800m - 4:49.82 - (30.1)
4200m - 5:19.87 - (30.0)
4600m - 5:49.89 - (30.0)
5000m - 6:20.24 - (30.3)
5.42 35
9 32 Patrick  Beckert GER GER 6:20.30200m - 19.16 - (19.1)
600m - 49.18 - (30.0)
1000m - 1:19.75 - (30.5)
1400m - 1:49.71 - (29.9)
1800m - 2:19.63 - (29.9)
2200m - 2:49.65 - (30.0)
2600m - 3:20.08 - (30.4)
3000m - 3:50.20 - (30.1)
3400m - 4:20.30 - (30.1)
3800m - 4:50.36 - (30.0)
4200m - 5:20.55 - (30.1)
4600m - 5:50.46 - (29.9)
5000m - 6:20.30 - (29.8)
5.48 30
10 28 Alexis  Contin FRA FRA 6:20.44200m - 19.07 - (19.0)
600m - 48.40 - (29.3)
1000m - 1:18.68 - (30.2)
1400m - 1:48.64 - (29.9)
1800m - 2:18.33 - (29.6)
2200m - 2:47.64 - (29.3)
2600m - 3:17.49 - (29.8)
3000m - 3:47.24 - (29.7)
3400m - 4:17.31 - (30.0)
3800m - 4:47.57 - (30.2)
4200m - 5:18.04 - (30.4)
4600m - 5:49.03 - (30.9)
5000m - 6:20.44 - (31.4)
5.62 25
11 84 Bob  de Jong NED NED 6:22.14200m - 19.12 - (19.1)
600m - 48.75 - (29.6)
1000m - 1:18.78 - (30.0)
1400m - 1:48.62 - (29.8)
1800m - 2:18.30 - (29.6)
2200m - 2:48.32 - (30.0)
2600m - 3:18.05 - (29.7)
3000m - 3:48.12 - (30.0)
3400m - 4:18.09 - (29.9)
3800m - 4:48.71 - (30.6)
4200m - 5:19.62 - (30.9)
4600m - 5:51.01 - (31.3)
5000m - 6:22.14 - (31.1)
7.32 21
12 34 Moritz  Geisreiter GER GER 6:22.52200m - 19.35 - (19.3)
600m - 49.25 - (29.9)
1000m - 1:19.28 - (30.0)
1400m - 1:50.05 - (30.7)
1800m - 2:20.54 - (30.4)
2200m - 2:50.97 - (30.4)
2600m - 3:21.10 - (30.1)
3000m - 3:51.22 - (30.1)
3400m - 4:21.31 - (30.0)
3800m - 4:51.45 - (30.1)
4200m - 5:21.70 - (30.2)
4600m - 5:51.89 - (30.1)
5000m - 6:22.52 - (30.6)
7.70 18
13 127 Denis  Yuskov RUS RUS 6:23.87200m - 18.83 - (18.8)
600m - 49.31 - (30.4)
1000m - 1:19.36 - (30.0)
1400m - 1:49.44 - (30.0)
1800m - 2:19.49 - (30.0)
2200m - 2:49.54 - (30.0)
2600m - 3:19.82 - (30.2)
3000m - 3:49.98 - (30.1)
3400m - 4:20.37 - (30.3)
3800m - 4:50.93 - (30.5)
4200m - 5:21.59 - (30.6)
4600m - 5:52.68 - (31.0)
5000m - 6:23.87 - (31.1)
9.05 16
14 104 Shane  Dobbin NZL NZL 6:26.68200m - 19.62 - (19.6)
600m - 50.18 - (30.5)
1000m - 1:21.08 - (30.9)
1400m - 1:51.88 - (30.8)
1800m - 2:22.32 - (30.4)
2200m - 2:52.78 - (30.4)
2600m - 3:23.00 - (30.2)
3000m - 3:53.32 - (30.3)
3400m - 4:23.81 - (30.4)
3800m - 4:54.27 - (30.4)
4200m - 5:25.03 - (30.7)
4600m - 5:55.80 - (30.7)
5000m - 6:26.68 - (30.8)
11.86 14
15 125 Danil  Sinitsyn RUS RUS 6:30.95200m - 19.48 - (19.4)
600m - 49.20 - (29.7)
1000m - 1:19.05 - (29.8)
1400m - 1:49.22 - (30.1)
1800m - 2:19.08 - (29.8)
2200m - 2:49.25 - (30.1)
2600m - 3:19.62 - (30.3)
3000m - 3:50.45 - (30.8)
3400m - 4:21.57 - (31.1)
3800m - 4:52.94 - (31.3)
4200m - 5:25.20 - (32.2)
4600m - 5:58.02 - (32.8)
5000m - 6:30.95 - (32.9)
16.13 12
16 31 Alexej  Baumgärtner GER GER 6:35.33200m - 19.84 - (19.8)
600m - 49.38 - (29.5)
1000m - 1:19.37 - (29.9)
1400m - 1:49.49 - (30.1)
1800m - 2:20.04 - (30.5)
2200m - 2:50.72 - (30.6)
2600m - 3:21.75 - (31.0)
3000m - 3:53.12 - (31.3)
3400m - 4:24.96 - (31.8)
3800m - 4:57.15 - (32.1)
4200m - 5:29.74 - (32.5)
4600m - 6:02.47 - (32.7)
5000m - 6:35.33 - (32.8)
20.51 10